Regional Weather Roundup
Issued by NWS Albany, NY

Home | Current Version | Previous Version | Text Only | Print | Product List | Glossary On
Versions: 1 2 3 4 5 6 7 8 9 10 11 12 13 14 15 16 17 18 19 20 21 22 23 24 25 26 27 28 29 30 31 32 33 34 35 36 37 38 39 40 41 42 43 44 45 46 47 48 49 50
000
ASUS41 KALY 131810
RWRALY

NEW YORK STATE HOURLY WEATHER ROUNDUP
NATIONAL WEATHER SERVICE ALBANY NY
200 PM EDT SUN JUL 13 2014

NOTE: "FAIR" INDICATES FEW OR NO CLOUDS BELOW 12,000 FEET WITH NO
SIGNIFICANT WEATHER AND/OR NO OBSTRUCTIONS TO VISIBILITY.

NYZ032-033-038>043-046>054-057>066-NYZ062>081-131900-
EAST


CITY           SKY/WX    TMP DP  RH WIND       PRES   REMARKS
ALBANY         CLOUDY    78  68  71 S17G28    29.92F
GLENS FALLS    CLOUDY    76  69  79 S10G21    29.89F
POUGHKEEPSIE   CLOUDY    80  69  69 S8        29.97S
MONTGOMERY     CLOUDY    79  70  74 S14       29.98F
WHITE PLAINS   SUNNY     81  69  67 S14G23    30.01F
ISLIP          PTSUNNY   78  69  73 S15G25    30.02F
NEW YORK CITY  PTSUNNY   81  68  64 S22       30.00F
CENTRAL PARK   MOSUNNY   82  68  62 SE6       30.03F
$$

NYZ005>009-017-018-044>046-055-056-131900-
CENTRAL


CITY           SKY/WX    TMP DP  RH WIND       PRES   REMARKS
FULTON         LGT RAIN  73  69  87 S10G20    29.80F FOG
SYRACUSE       LGT RAIN  78  68  71 S9        29.81F
ROME           LGT RAIN  77  69  76 SW6       29.87R
ELMIRA         LGT RAIN  75  70  83 W3        29.87F
BINGHAMTON     CLOUDY    77  68  73 SW9       29.95F
$$

NYZ026>034-041>043-131900-
NORTH


CITY           SKY/WX    TMP DP  RH WIND       PRES   REMARKS
WATERTOWN      CLOUDY    74  66  76 S17G28    29.74F
FORT DRUM      NOT AVBL
MASSENA        CLOUDY    75  71  87 S9        29.73F
SARANAC LAKE   LGT RAIN  73  65  75 SW15      29.84F
PLATTSBURGH    CLOUDY    75  68  78 S9        29.79F
$$

NYZ001>004-010>016-019>021-131900-
WEST


CITY           SKY/WX    TMP DP  RH WIND       PRES   REMARKS
NIAGARA FALLS  CLOUDY    73  70  90 SW8       29.78S
BUFFALO        TSTM      71  69  93 SW10G20   29.79S
DUNKIRK        CLOUDY    72  69  90 W14G25    29.83R
JAMESTOWN      CLOUDY    75  68  78 SW15G26   29.87F
WELLSVILLE     CLOUDY    74  67  78 SW17G25   29.93F
ROCHESTER      HVY RAIN  73  70  88 SW12      29.79S FOG
PENN YAN       CLOUDY    75  68  78 S10G18    29.84F
$$

             KEY
       WCI = WIND CHILL INDEX
       VSB = VISIBILITY
       HX  = HEAT INDEX
$$



USA.gov is the U.S. government's official web portal to all federal, state and local government web resources and services.